This is the latest recevied weather packets stored in our database for station/object N0QWM. If no packets are shown the sender has not sent any weather packets the latest 10 day(s).
| Time | Temp. | Humidity | Pressure | Rain* | Wind** | Luminosity | Snow |
|---|---|---|---|---|---|---|---|
| 1787949813 | 35° C | 44% | 1020.6 hPa | 0 mm | - | 427 W/m² | - |
| 1787949513 | 35° C | 45% | 1020.7 hPa | 0 mm | - | 440 W/m² | - |
| 1787949208 | 35° C | 46% | 1020.6 hPa | 0 mm | - | 430 W/m² | - |
| 1787948903 | 34.44° C | 45% | 1020.6 hPa | 0 mm | - | 472 W/m² | - |
| 1787948599 | 34.44° C | 49% | 1020.9 hPa | 0 mm | - | 475 W/m² | - |
| 1787948294 | 35° C | 47% | 1020.8 hPa | 0 mm | - | 95 W/m² | - |
| 1787947994 | 34.44° C | 47% | 1021.1 hPa | 0 mm | - | 323 W/m² | - |
| 1787947693 | 33.89° C | 49% | 1020.8 hPa | 0 mm | - | 509 W/m² | - |
| 1787947387 | 35° C | 46% | 1020.9 hPa | 0 mm | - | 120 W/m² | - |
| 1787947086 | 35° C | 46% | 1020.8 hPa | 0 mm | - | 531 W/m² | - |
| 1787946786 | 34.44° C | 47% | 1020.9 hPa | 0 mm | - | 515 W/m² | - |
| 1787946484 | 33.89° C | 47% | 1021.1 hPa | 0 mm | - | 524 W/m² | - |
| 1787946180 | 34.44° C | 46% | 1021 hPa | 0 mm | - | 125 W/m² | - |
| 1787945874 | 34.44° C | 47% | 1021.1 hPa | 0 mm | - | 559 W/m² | - |
| 1787945570 | 33.89° C | 48% | 1021.4 hPa | 0 mm | - | 620 W/m² | - |
| 1787945269 | 33.89° C | 48% | 1021.4 hPa | 0 mm | - | 231 W/m² | - |
| 1787944969 | 34.44° C | 44% | 1021.3 hPa | 0 mm | - | 131 W/m² | - |
| 1787944667 | 34.44° C | 48% | 1021.6 hPa | 0 mm | - | 214 W/m² | - |
| 1787944363 | 34.44° C | 47% | 1021.5 hPa | 0 mm | - | 210 W/m² | - |
| 1787944058 | 33.89° C | 46% | 1021.6 hPa | 0 mm | - | 124 W/m² | - |
| 1787943753 | 33.89° C | 48% | 1021.6 hPa | 0 mm | - | 409 W/m² | - |
| 1787943448 | 33.89° C | 50% | 1021.6 hPa | 0 mm | - | 138 W/m² | - |
| 1787943144 | 33.89° C | 48% | 1021.7 hPa | 0 mm | - | 648 W/m² | - |
| 1787942838 | 33.89° C | 50% | 1022 hPa | 0 mm | - | 638 W/m² | - |
| 1787942534 | 34.44° C | 48% | 1021.8 hPa | 0 mm | - | 669 W/m² | - |
* Rain latest hour (hover to see other rain measurements)
** Current wind speed in m/s (hover to see current wind gust speed)